FLOCK 4A-3 (44081 NORAD) Tracking and Keplerian Element Data

This shows tracking and keplerian element data for the satellite.

Feedback or suggestion? Click here.




ElementValue
Catalog44081
NameFLOCK 4A-3
Epoch Orbit310
Epoch Day111.72972371
Epoch Year2019
RAAN172.1015
Inclination97.4618
Eccentricity0.0012909
Argument of Perigee200.3126
Mean Anonmoly159.7598
Mean Motion15.21230881
Decay Rate5.16E-06
L11 44081U 19018D 19111.72972371 .00000516 00000-0 26229-4 0 9994
L22 44081 97.4618 172.1015 0012909 200.3126 159.7598 15.21230881 3105

Live tracking and technical data element details for FLOCK 4A-3 (NORAD 44081). FLOCK 4A-3 can be tracked NOW for your location showing map with azimuth and elevation plus other details from your city location.

Track the satellite on the map from your city or location and see movement details for azimuth, elevation, latitude, longitude, range, height, and movement on the map or in text.







IsCatalogInMostPopularTable: catalog: 44081, numindb: 1
Update: records affected: 1



GetName: 44081 FLOCK 4A-3

Hit Count: updated at: Tue, 23 Apr 2019 02:07:12 GMT